Precipitable_Water
0.39 0.39 0.39 0.39 0.35 0.38 0.40 0.41 0.43 0.42 0.40 0.36 0.41 0.43 0.41 0.41 0.43 0.43 0.37 0.43 0.35 0.25 0.24 0.23 0.27 0.27 0.29 0.31 0.26 0.31 0.32 0.42 0.40 0.33 0.27 0.25 0.25 0.27 0.25 0.28 0.26 0.23 0.21 0.20 0.21 0.19 0.17 0.29 0.27 0.20 0.25 0.30 0.31 0.31
0.38 0.39 0.39 0.36 0.41 0.44 0.45 0.43 0.43 0.43 0.42 0.37 0.40 0.41 0.45 0.44 0.42 0.42 0.33 0.38 0.40 0.32 0.25 0.27 0.23 0.26 0.31 0.37 0.35 0.36 0.35 0.37 0.45 0.38 0.35 0.32 0.26 0.28 0.27 0.23 0.37 0.26 0.27 0.21 0.23 0.21 0.28 0.29 0.27 0.30 0.30 0.30 0.32 0.33
0.36 0.36 0.36 0.38 0.42 0.42 0.41 0.42 0.42 0.42 0.40 0.39 0.42 0.43 0.44 0.41 0.36 0.39 0.36 0.38 0.35 0.28 0.24 0.21 0.23 0.34 0.47 0.49 0.51 0.34 0.40 0.46 0.48 0.55 0.42 0.36 0.28 0.30 0.24 0.26 0.29 0.35 0.40 0.30 0.26 0.27 0.27 0.29 0.31 0.33 0.34 0.34 0.36 0.37
0.37 0.39 0.40 0.41 0.41 0.40 0.39 0.41 0.43 0.41 0.37 0.35 0.34 0.34 0.34 0.33 0.35 0.37 0.36 0.36 0.35 0.29 0.18 0.14 0.35 0.38 0.48 0.49 0.49 0.48 0.46 0.50 0.51 0.54 0.46 0.39 0.30 0.37 0.28 0.30 0.30 0.35 0.38 0.34 0.33 0.36 0.37 0.37 0.37 0.37 0.38 0.40 0.41 0.42
0.33 0.36 0.38 0.39 0.39 0.40 0.41 0.41 0.43 0.40 0.34 0.36 0.35 0.34 0.34 0.35 0.38 0.40 0.38 0.35 0.35 0.26 0.16 0.21 0.32 0.36 0.45 0.48 0.47 0.49 0.47 0.46 0.45 0.44 0.42 0.39 0.43 0.38 0.37 0.37 0.33 0.39 0.36 0.32 0.29 0.35 0.35 0.35 0.37 0.39 0.41 0.42 0.42 0.41
0.33 0.31 0.34 0.39 0.41 0.36 0.39 0.43 0.43 0.36 0.37 0.37 0.35 0.34 0.40 0.40 0.41 0.37 0.23 0.30 0.41 0.41 0.27 0.22 0.37 0.36 0.42 0.46 0.45 0.46 0.47 0.46 0.46 0.42 0.41 0.43 0.48 0.45 0.36 0.32 0.40 0.45 0.47 0.46 0.37 0.40 0.38 0.38 0.39 0.41 0.41 0.39 0.37 0.34
0.40 0.36 0.31 0.33 0.36 0.39 0.42 0.36 0.33 0.32 0.34 0.34 0.37 0.38 0.36 0.35 0.33 0.25 0.19 0.28 0.37 0.39 0.27 0.24 0.27 0.37 0.42 0.43 0.43 0.43 0.46 0.44 0.44 0.41 0.38 0.39 0.41 0.44 0.36 0.31 0.39 0.46 0.50 0.47 0.47 0.48 0.42 0.42 0.39 0.39 0.36 0.35 0.34 0.35
0.40 0.38 0.35 0.38 0.39 0.39 0.32 0.32 0.33 0.34 0.37 0.37 0.36 0.35 0.31 0.28 0.28 0.25 0.35 0.43 0.45 0.34 0.32 0.23 0.25 0.30 0.40 0.33 0.33 0.43 0.38 0.41 0.39 0.38 0.39 0.36 0.39 0.37 0.29 0.35 0.40 0.43 0.45 0.44 0.43 0.42 0.40 0.38 0.37 0.39 0.40 0.40 0.36 0.33
0.37 0.38 0.40 0.39 0.33 0.33 0.35 0.35 0.39 0.42 0.40 0.34 0.29 0.25 0.27 0.30 0.27 0.32 0.44 0.47 0.44 0.34 0.25 0.25 0.22 0.21 0.37 0.33 0.36 0.37 0.39 0.30 0.37 0.31 0.32 0.34 0.30 0.25 0.30 0.34 0.37 0.41 0.41 0.41 0.44 0.42 0.40 0.41 0.39 0.36 0.33 0.31 0.29 0.28
0.33 0.33 0.34 0.36 0.36 0.36 0.36 0.37 0.37 0.36 0.33 0.27 0.24 0.22 0.22 0.33 0.41 0.43 0.36 0.30 0.30 0.31 0.31 0.24 0.29 0.24 0.31 0.31 0.30 0.31 0.33 0.28 0.24 0.28 0.34 0.27 0.25 0.31 0.34 0.37 0.39 0.40 0.41 0.41 0.37 0.36 0.37 0.33 0.32 0.30 0.28 0.27 0.25 0.23
0.33 0.35 0.35 0.35 0.34 0.34 0.34 0.34 0.34 0.33 0.31 0.26 0.23 0.24 0.35 0.42 0.36 0.30 0.23 0.22 0.24 0.22 0.26 0.27 0.27 0.25 0.33 0.26 0.26 0.29 0.26 0.28 0.22 0.24 0.24 0.22 0.22 0.27 0.32 0.33 0.38 0.40 0.40 0.38 0.37 0.35 0.31 0.28 0.26 0.24 0.24 0.23 0.22 0.21
0.35 0.35 0.34 0.32 0.32 0.33 0.33 0.33 0.32 0.32 0.31 0.31 0.33 0.37 0.35 0.27 0.24 0.20 0.18 0.21 0.20 0.18 0.25 0.24 0.26 0.28 0.28 0.30 0.27 0.26 0.22 0.24 0.18 0.26 0.22 0.18 0.24 0.28 0.26 0.26 0.29 0.32 0.30 0.29 0.28 0.25 0.25 0.24 0.23 0.22 0.21 0.20 0.20 0.19
0.32 0.32 0.31 0.31 0.31 0.32 0.31 0.30 0.31 0.33 0.32 0.31 0.26 0.22 0.21 0.19 0.15 0.14 0.13 0.15 0.17 0.22 0.25 0.26 0.24 0.26 0.26 0.25 0.21 0.20 0.19 0.18 0.25 0.20 0.18 0.20 0.26 0.25 0.25 0.25 0.26 0.25 0.23 0.23 0.22 0.22 0.22 0.22 0.22 0.21 0.19 0.19 0.19 0.18
0.29 0.27 0.27 0.28 0.30 0.30 0.29 0.28 0.29 0.29 0.27 0.21 0.17 0.15 0.16 0.15 0.16 0.17 0.18 0.19 0.23 0.25 0.25 0.25 0.23 0.21 0.21 0.18 0.19 0.16 0.16 0.19 0.17 0.16 0.16 0.22 0.23 0.22 0.22 0.22 0.21 0.21 0.21 0.21 0.21 0.21 0.20 0.19 0.18 0.18 0.18 0.18 0.17 0.16
0.28 0.26 0.25 0.28 0.30 0.28 0.26 0.25 0.26 0.26 0.23 0.18 0.18 0.14 0.16 0.20 0.22 0.23 0.25 0.24 0.26 0.27 0.23 0.23 0.20 0.18 0.16 0.15 0.15 0.15 0.15 0.15 0.16 0.16 0.20 0.22 0.21 0.21 0.21 0.21 0.20 0.20 0.20 0.19 0.18 0.18 0.17 0.17 0.16 0.16 0.17 0.17 0.17 0.17
0.27 0.23 0.23 0.29 0.28 0.25 0.23 0.23 0.24 0.25 0.23 0.21 0.20 0.18 0.20 0.19 0.20 0.22 0.22 0.22 0.25 0.24 0.22 0.18 0.15 0.14 0.13 0.16 0.13 0.14 0.15 0.14 0.17 0.21 0.22 0.22 0.21 0.20 0.20 0.19 0.19 0.19 0.18 0.17 0.17 0.17 0.16 0.16 0.16 0.15 0.16 0.16 0.16 0.16
0.27 0.22 0.28 0.28 0.26 0.23 0.21 0.20 0.20 0.20 0.20 0.19 0.18 0.23 0.21 0.21 0.20 0.20 0.20 0.23 0.25 0.20 0.15 0.15 0.12 0.12 0.17 0.14 0.14 0.18 0.16 0.19 0.21 0.22 0.22 0.21 0.19 0.18 0.18 0.18 0.17 0.17 0.16 0.16 0.16 0.15 0.15 0.15 0.14 0.13 0.12 0.14 0.14 0.14
0.24 0.26 0.27 0.26 0.23 0.20 0.19 0.19 0.18 0.19 0.17 0.20 0.18 0.20 0.22 0.22 0.21 0.20 0.19 0.23 0.21 0.18 0.17 0.15 0.17 0.14 0.13 0.13 0.14 0.18 0.20 0.21 0.21 0.20 0.19 0.19 0.18 0.18 0.17 0.16 0.16 0.16 0.15 0.15 0.14 0.14 0.14 0.13 0.13 0.13 0.14 0.15 0.16 0.17
0.26 0.26 0.24 0.25 0.21 0.18 0.15 0.16 0.19 0.15 0.18 0.20 0.21 0.22 0.22 0.21 0.23 0.22 0.20 0.20 0.22 0.20 0.18 0.16 0.13 0.12 0.13 0.16 0.16 0.17 0.18 0.17 0.16 0.16 0.16 0.17 0.17 0.16 0.16 0.16 0.15 0.15 0.14 0.14 0.13 0.13 0.14 0.14 0.14 0.15 0.16 0.17 0.18 0.21
0.24 0.23 0.23 0.23 0.19 0.16 0.15 0.16 0.21 0.16 0.15 0.19 0.21 0.19 0.19 0.19 0.20 0.20 0.19 0.18 0.18 0.15 0.13 0.13 0.13 0.15 0.16 0.17 0.19 0.19 0.19 0.19 0.17 0.15 0.15 0.16 0.16 0.16 0.15 0.15 0.14 0.14 0.13 0.13 0.14 0.14 0.14 0.14 0.16 0.17 0.20 0.21 0.22 0.21
0.21 0.20 0.20 0.20 0.16 0.17 0.17 0.17 0.17 0.17 0.17 0.17 0.19 0.19 0.18 0.20 0.18 0.17 0.16 0.17 0.14 0.14 0.14 0.17 0.18 0.19 0.21 0.21 0.22 0.21 0.20 0.19 0.17 0.17 0.15 0.14 0.15 0.15 0.14 0.14 0.14 0.14 0.13 0.13 0.13 0.13 0.14 0.15 0.18 0.22 0.23 0.23 0.23 0.23
0.20 0.20 0.17 0.17 0.15 0.15 0.15 0.18 0.17 0.18 0.17 0.16 0.17 0.18 0.17 0.17 0.17 0.17 0.19 0.16 0.15 0.17 0.18 0.19 0.19 0.19 0.18 0.18 0.18 0.18 0.18 0.17 0.17 0.16 0.16 0.16 0.14 0.13 0.13 0.14 0.14 0.13 0.13 0.13 0.14 0.15 0.17 0.21 0.24 0.24 0.23 0.23 0.24 0.24
0.21 0.18 0.16 0.16 0.13 0.13 0.13 0.18 0.15 0.15 0.13 0.14 0.16 0.14 0.15 0.16 0.17 0.20 0.15 0.17 0.17 0.19 0.20 0.21 0.20 0.19 0.18 0.18 0.18 0.17 0.17 0.17 0.16 0.16 0.16 0.15 0.15 0.15 0.15 0.14 0.15 0.14 0.13 0.15 0.17 0.19 0.22 0.24 0.24 0.24 0.23 0.23 0.24 0.24
0.21 0.16 0.14 0.13 0.14 0.12 0.15 0.14 0.15 0.15 0.14 0.13 0.13 0.12 0.14 0.16 0.18 0.16 0.14 0.15 0.18 0.20 0.20 0.20 0.20 0.18 0.18 0.17 0.16 0.16 0.16 0.17 0.17 0.17 0.17 0.16 0.15 0.15 0.15 0.15 0.15 0.15 0.16 0.18 0.21 0.23 0.24 0.24 0.24 0.24 0.24 0.24 0.24 0.24
0.13 0.13 0.14 0.12 0.14 0.13 0.12 0.13 0.13 0.13 0.12 0.13 0.13 0.13 0.14 0.16 0.14 0.13 0.13 0.15 0.17 0.18 0.19 0.20 0.19 0.18 0.16 0.16 0.17 0.17 0.18 0.17 0.16 0.15 0.16 0.16 0.15 0.15 0.15 0.15 0.16 0.17 0.20 0.22 0.22 0.23 0.23 0.24 0.24 0.24 0.25 0.24 0.24 0.24
0.11 0.14 0.13 0.13 0.13 0.12 0.12 0.11 0.12 0.13 0.13 0.13 0.13 0.15 0.15 0.13 0.12 0.12 0.14 0.16 0.17 0.18 0.19 0.18 0.17 0.16 0.16 0.17 0.16 0.16 0.17 0.18 0.17 0.16 0.16 0.17 0.16 0.15 0.15 0.15 0.15 0.18 0.23 0.24 0.24 0.23 0.23 0.24 0.24 0.24 0.24 0.25 0.25 0.25
0.11 0.13 0.16 0.19 0.16 0.15 0.13 0.14 0.15 0.14 0.13 0.12 0.13 0.13 0.12 0.10 0.11 0.14 0.17 0.18 0.18 0.19 0.20 0.20 0.18 0.16 0.17 0.17 0.18 0.19 0.19 0.19 0.18 0.17 0.18 0.19 0.19 0.20 0.19 0.17 0.17 0.21 0.25 0.25 0.25 0.25 0.24 0.24 0.24 0.25 0.25 0.26 0.26 0.26
0.16 0.16 0.13 0.16 0.16 0.16 0.13 0.12 0.12 0.12 0.13 0.14 0.13 0.11 0.11 0.11 0.12 0.16 0.17 0.19 0.19 0.20 0.20 0.20 0.19 0.18 0.18 0.19 0.19 0.20 0.20 0.20 0.20 0.20 0.20 0.20 0.20 0.21 0.21 0.22 0.22 0.24 0.25 0.26 0.26 0.26 0.26 0.26 0.26 0.26 0.26 0.26 0.26 0.27
0.17 0.19 0.17 0.15 0.15 0.15 0.14 0.12 0.11 0.13 0.15 0.14 0.12 0.12 0.13 0.15 0.17 0.17 0.18 0.19 0.20 0.19 0.18 0.18 0.19 0.19 0.20 0.20 0.20 0.21 0.22 0.20 0.18 0.16 0.16 0.16 0.17 0.19 0.22 0.22 0.22 0.23 0.25 0.26 0.27 0.27 0.28 0.28 0.28 0.27 0.27 0.27 0.27 0.28
0.17 0.20 0.17 0.15 0.14 0.14 0.15 0.15 0.13 0.15 0.15 0.15 0.16 0.16 0.16 0.16 0.18 0.19 0.19 0.19 0.18 0.17 0.18 0.19 0.20 0.19 0.19 0.20 0.20 0.20 0.21 0.20 0.18 0.17 0.15 0.15 0.17 0.19 0.20 0.21 0.22 0.23 0.24 0.25 0.26 0.27 0.28 0.28 0.28 0.28 0.27 0.27 0.27 0.27
0.19 0.19 0.17 0.16 0.14 0.16 0.17 0.17 0.16 0.16 0.16 0.16 0.16 0.15 0.15 0.16 0.18 0.20 0.19 0.19 0.19 0.19 0.20 0.20 0.20 0.20 0.20 0.20 0.20 0.19 0.18 0.19 0.19 0.18 0.18 0.18 0.19 0.19 0.20 0.21 0.22 0.22 0.22 0.23 0.26 0.26 0.26 0.26 0.26 0.26 0.26 0.26 0.27 0.27
0.17 0.16 0.16 0.14 0.15 0.17 0.18 0.16 0.15 0.15 0.15 0.15 0.15 0.16 0.16 0.15 0.15 0.17 0.19 0.20 0.20 0.19 0.20 0.20 0.20 0.20 0.22 0.22 0.21 0.20 0.20 0.19 0.18 0.17 0.17 0.17 0.18 0.20 0.21 0.21 0.21 0.21 0.21 0.21 0.23 0.26 0.26 0.26 0.26 0.26 0.26 0.26 0.27 0.27
0.16 0.16 0.17 0.16 0.15 0.14 0.15 0.15 0.14 0.14 0.14 0.14 0.14 0.15 0.15 0.15 0.14 0.17 0.20 0.21 0.21 0.20 0.20 0.21 0.21 0.22 0.21 0.21 0.20 0.19 0.19 0.18 0.17 0.18 0.17 0.18 0.18 0.19 0.20 0.19 0.19 0.20 0.20 0.20 0.20 0.22 0.25 0.26 0.26 0.26 0.26 0.27 0.27 0.27
Wind_Speed
49 48 48 47 44 41 39 36 34 32 31 30 28 27 26 25 23 22 23 22 22 24 25 27 22 20 19 18 16 15 11 16 25 27 29 27 25 29 27 30 28 28 28 29 29 25 24 21 21 23 19 18 20 22
48 47 46 43 40 37 34 33 31 30 30 29 27 25 23 22 21 22 22 22 22 23 26 29 28 27 25 23 20 13 15 16 19 22 23 24 23 25 27 27 26 23 25 25 26 25 21 21 19 18 18 19 20 20
46 45 42 39 37 35 33 31 31 29 28 26 25 23 23 22 22 22 23 22 22 22 25 17 16 19 17 17 17 13 13 9 18 22 19 23 21 22 24 24 24 22 21 21 24 21 22 22 19 19 19 19 19 19
45 42 40 37 35 33 31 30 29 28 27 26 25 24 24 24 24 23 22 21 20 19 19 17 14 16 14 15 16 17 15 12 14 23 19 19 21 21 20 21 21 22 22 21 20 21 21 21 21 21 20 19 18 18
42 39 36 33 32 30 29 29 29 28 27 26 25 24 24 24 23 22 21 21 20 17 15 15 17 18 15 14 14 15 16 12 10 13 20 21 19 19 18 19 19 19 20 21 21 23 18 20 19 19 18 16 16 16
39 36 34 33 31 30 29 29 28 27 26 25 25 24 24 22 21 18 15 12 9 8 10 11 12 12 12 11 11 10 10 12 11 10 11 13 18 17 17 16 16 17 18 18 19 18 18 19 18 17 16 16 16 15
37 34 33 32 31 30 29 27 27 27 27 26 25 24 23 21 19 17 15 14 14 13 11 11 10 10 10 12 11 10 9 10 11 12 10 11 11 11 13 14 13 14 15 16 18 20 17 18 18 17 16 15 15 14
34 31 31 31 31 30 28 28 28 27 26 25 24 24 22 20 18 15 13 12 11 10 11 12 11 9 9 12 11 10 10 9 7 9 11 11 10 9 9 9 11 12 15 16 16 15 17 18 17 15 15 14 13 13
32 29 29 29 29 29 28 27 26 25 25 25 24 21 16 12 9 8 10 11 11 9 10 11 9 7 9 12 12 11 10 10 8 8 8 9 8 8 8 8 9 13 13 15 15 16 17 16 16 15 14 13 12 12
33 30 28 28 28 28 27 27 26 27 28 24 17 10 5 3 8 7 6 7 8 10 12 10 8 8 9 11 12 12 11 10 10 7 7 7 8 8 7 9 11 13 15 17 18 18 17 15 14 12 11 11 11 11
32 30 29 29 29 30 30 28 28 29 23 14 8 3 3 3 3 4 4 5 6 9 9 8 8 8 8 10 11 10 10 10 9 7 8 9 9 8 10 12 14 16 16 16 16 16 14 13 12 11 10 9 9 10
33 31 31 31 31 32 31 29 29 23 14 9 4 2 2 2 3 3 3 4 5 7 6 8 8 8 9 10 10 9 10 9 9 9 9 10 10 9 11 12 14 15 15 14 14 13 11 10 9 9 9 9 9 10
33 33 32 31 31 32 31 28 25 18 10 4 3 3 3 3 4 3 1 3 4 5 6 7 8 9 9 8 9 8 8 8 10 8 10 12 13 12 13 14 15 15 14 13 11 9 8 7 7 7 8 9 10 12
33 33 31 31 32 30 27 24 19 15 7 4 5 6 5 4 4 3 1 3 5 7 6 6 7 8 8 8 7 8 8 9 8 9 12 15 15 15 15 14 13 12 11 9 8 7 6 5 5 6 8 11 13 15
32 31 27 31 33 28 23 20 14 13 10 6 5 6 6 4 3 3 4 4 5 6 6 8 7 7 6 8 7 9 8 7 8 13 16 16 15 15 14 12 11 9 8 6 5 5 5 6 8 10 11 13 15 17
32 27 25 30 31 25 21 15 10 8 10 9 8 6 6 5 5 5 3 3 5 6 7 7 7 7 5 6 6 5 7 9 15 17 17 17 15 14 12 10 8 7 5 5 4 5 7 9 11 13 15 17 19 22
29 24 28 27 27 20 18 11 9 8 7 8 6 7 7 5 6 5 3 3 4 7 7 7 6 6 7 7 7 7 13 19 20 18 17 15 14 11 9 7 5 4 3 5 6 9 11 13 15 17 19 22 24 26
26 26 25 24 22 14 11 12 8 7 8 9 7 7 7 7 5 6 5 4 6 7 8 7 8 6 8 11 15 17 18 19 18 16 14 12 9 7 5 3 3 4 6 8 10 12 14 17 19 21 23 25 27 28
27 23 22 20 17 11 7 9 9 6 7 7 9 8 7 7 7 7 7 8 8 8 9 9 12 13 15 16 17 17 16 15 14 11 9 6 4 3 2 3 5 7 9 11 13 15 18 20 22 24 26 28 28 27
23 20 20 17 15 9 5 5 6 6 6 6 7 8 8 9 8 8 10 10 11 13 16 15 15 15 15 15 14 14 13 11 9 7 5 3 2 2 4 6 8 11 12 15 17 19 21 23 24 25 25 24 22 21
20 19 17 16 12 9 7 5 5 4 3 4 5 7 8 9 13 14 15 15 16 14 16 15 15 14 14 13 11 10 8 6 5 3 3 3 4 5 7 9 11 13 15 16 18 20 22 22 22 21 20 19 18 17
18 18 16 15 10 6 6 7 5 5 5 4 4 5 7 8 9 10 11 12 13 13 12 12 12 11 10 9 8 6 4 3 1 1 3 5 7 9 11 12 13 14 15 17 19 19 19 19 18 17 16 14 12 11
16 16 15 15 10 7 4 5 4 5 4 3 2 3 4 5 6 6 9 10 11 10 9 9 9 8 7 6 5 3 2 1 2 4 6 8 9 10 11 12 13 15 16 17 17 17 17 15 14 12 9 8 6 4
14 13 14 13 12 8 5 4 3 3 3 3 2 3 4 4 5 7 8 7 7 6 7 6 5 5 4 3 2 1 3 4 5 6 7 8 9 10 12 13 15 15 15 15 15 14 12 11 9 7 5 3 2 1
12 12 11 12 12 10 8 5 4 3 3 3 1 4 5 5 6 6 6 5 4 4 4 3 3 2 2 1 2 3 5 6 6 6 8 9 10 11 12 13 13 13 12 13 12 10 9 7 5 3 2 1 1 2
11 12 10 10 9 9 8 5 4 3 3 4 4 5 6 6 5 6 6 5 4 4 3 3 3 2 1 2 3 5 6 7 7 7 8 10 10 11 11 11 11 10 11 10 10 9 7 5 3 2 1 1 2 3
11 11 10 9 8 7 6 5 3 3 4 4 5 4 4 5 5 6 6 5 4 4 4 4 3 3 2 3 3 5 6 7 7 8 8 9 9 9 10 10 10 11 10 9 9 7 5 4 3 2 1 2 3 4
9 10 9 9 7 7 5 4 2 2 2 2 2 3 4 4 6 7 5 4 3 3 4 4 3 2 3 3 4 4 5 7 7 6 6 7 7 8 9 10 10 10 9 9 7 5 4 3 3 3 3 3 4 5
8 10 8 8 7 5 5 4 2 2 2 2 2 3 5 8 8 6 5 3 3 2 2 2 2 1 1 1 2 3 4 6 7 7 8 8 8 8 10 11 10 10 9 8 7 5 4 3 3 3 3 4 5 6
8 9 7 6 6 5 3 2 2 3 3 4 5 9 10 8 6 5 3 2 2 2 2 2 1 1 1 2 3 3 4 5 7 7 8 8 8 10 11 11 11 11 9 8 7 5 4 2 2 2 3 4 5 7
8 8 5 5 4 3 2 2 3 5 7 9 9 8 7 5 4 3 2 2 3 3 2 2 2 2 1 2 3 4 5 5 7 9 9 9 10 10 11 10 11 11 9 8 6 5 4 2 2 2 3 4 5 7
7 6 4 3 3 2 1 1 4 7 8 8 6 5 4 4 3 3 3 3 2 2 2 2 2 1 1 2 3 4 5 7 9 10 10 10 11 11 11 11 11 10 9 8 6 5 4 3 2 2 3 4 6 7
5 4 2 1 1 1 1 4 6 7 7 6 5 4 3 2 2 2 2 2 2 2 1 2 2 1 1 3 3 4 7 8 10 11 11 11 12 12 12 12 11 10 9 8 7 6 4 4 3 3 3 4 5 7
Wind_Direction
316 315 314 313 312 310 309 308 307 306 305 305 301 300 298 294 289 286 284 280 277 277 279 280 264 249 259 251 261 275 269 199 200 206 202 204 206 206 206 203 207 209 209 215 217 221 227 216 216 223 227 221 216 212
318 317 316 314 314 313 311 310 309 307 306 306 301 300 298 295 291 288 284 283 280 275 279 279 261 254 254 252 256 250 222 239 204 204 205 200 204 205 201 207 212 212 218 214 220 223 223 224 223 220 223 212 209 207
322 320 318 316 314 312 311 310 310 308 307 305 303 299 296 294 292 290 286 284 284 283 289 262 238 242 239 243 238 234 219 215 212 208 206 204 203 208 207 211 209 216 218 218 215 221 219 221 219 215 215 211 210 211
326 324 321 317 314 312 311 310 309 309 306 304 301 297 295 293 291 290 284 282 281 284 283 264 228 224 235 242 232 227 233 233 222 211 205 204 206 213 212 212 215 220 218 215 220 217 217 223 221 218 215 214 213 216
329 329 327 325 322 318 314 312 310 309 306 303 301 299 296 294 291 288 283 281 277 268 265 253 249 250 231 234 231 225 222 221 205 203 210 213 209 207 207 211 217 226 223 226 225 212 217 206 204 200 198 203 207 207
328 329 329 327 325 322 318 316 312 311 308 304 301 300 296 292 290 288 285 273 253 279 263 236 220 228 227 217 208 205 206 206 197 187 180 190 200 210 210 213 216 220 217 224 211 206 197 194 197 205 205 209 212 216
327 326 328 329 328 326 323 320 317 313 310 305 301 299 295 290 282 272 270 265 261 273 248 225 213 207 211 204 202 198 189 189 194 195 187 186 183 191 205 209 214 209 201 195 192 191 197 205 205 205 205 209 213 218
330 327 328 329 329 328 326 324 322 319 315 310 305 299 293 287 278 269 256 246 250 253 223 210 214 213 204 200 196 193 188 184 181 187 190 193 189 189 189 190 187 188 185 186 195 196 190 189 189 197 202 207 212 215
343 337 334 334 333 332 330 328 327 325 322 317 310 303 292 278 258 238 247 251 234 225 205 203 209 203 204 193 191 188 187 176 175 167 178 188 198 194 195 191 188 182 184 174 174 173 172 174 179 184 187 192 198 207
351 348 345 343 342 340 337 334 331 328 325 319 315 308 285 247 273 248 214 215 208 200 200 203 205 202 195 187 184 188 180 181 182 178 186 164 151 152 162 166 160 158 158 159 156 160 167 172 178 182 190 198 207 216
352 352 350 347 345 343 340 336 333 330 330 333 330 311 307 304 183 184 192 197 198 189 193 194 194 188 177 179 178 186 180 183 179 186 181 175 171 160 152 148 149 147 148 150 153 159 164 169 176 184 195 208 220 232
348 346 345 345 344 343 341 338 337 337 335 335 341 6 71 79 138 159 174 185 183 183 193 187 179 175 171 175 176 180 177 179 176 184 174 171 164 160 158 154 153 153 151 152 154 158 164 173 186 199 213 226 239 249
346 346 344 342 342 343 344 345 347 349 355 34 69 76 73 72 78 89 80 170 182 182 176 178 175 180 176 173 169 174 177 176 183 187 178 170 165 156 152 146 145 147 147 149 155 164 174 185 202 218 232 247 257 264
343 344 345 347 346 345 347 351 357 4 20 72 67 58 71 76 69 91 82 162 165 171 164 172 177 174 182 179 185 176 179 184 181 175 167 165 160 156 152 151 148 149 154 159 165 175 187 206 229 250 262 269 273 277
341 342 344 349 350 348 350 355 6 25 39 71 76 69 58 48 61 77 87 124 142 157 156 159 159 165 165 167 177 176 179 176 178 168 162 159 155 155 154 155 157 158 164 171 185 202 227 255 269 275 279 281 283 284
341 341 344 346 350 351 355 1 15 36 49 65 75 64 36 52 51 63 67 115 139 154 159 156 153 151 136 162 158 166 173 162 157 155 152 152 151 151 153 157 161 168 180 200 226 251 272 283 284 284 286 287 289 290
341 342 342 344 349 354 4 15 31 51 54 56 59 51 42 61 48 45 54 136 150 160 152 146 135 141 147 138 138 134 136 140 143 145 145 146 148 150 154 158 168 192 229 259 273 283 288 289 288 289 290 291 292 292
341 340 343 346 350 357 12 25 45 61 55 48 51 37 46 52 49 51 59 102 131 137 142 142 140 125 128 124 127 131 131 134 136 138 139 141 144 149 162 182 229 264 278 284 287 289 291 292 292 293 293 294 294 294
342 343 346 349 355 2 15 29 38 64 56 52 46 47 54 57 60 66 70 91 123 131 136 130 119 117 120 120 124 128 132 136 138 139 140 139 147 169 226 267 281 288 291 294 296 296 296 297 297 297 296 296 296 295
350 350 353 357 2 11 24 27 33 51 57 48 50 50 60 60 65 82 84 87 107 121 113 115 115 117 122 123 125 129 131 137 142 145 149 164 216 267 290 291 294 295 295 297 298 300 300 299 300 300 299 298 296 295
357 359 1 4 9 28 39 30 44 41 48 65 55 64 72 77 79 87 95 100 105 111 117 114 117 117 118 122 125 129 130 136 146 165 199 242 277 288 294 299 300 299 300 301 302 303 304 304 304 303 301 300 298 297
359 2 4 7 15 30 42 35 48 48 63 71 81 84 94 92 92 93 99 99 114 112 115 116 116 120 120 117 121 123 128 133 150 252 292 286 290 294 298 300 301 303 305 305 307 307 308 308 306 305 303 302 302 302
358 4 9 12 17 20 18 22 44 40 53 44 80 119 122 120 111 123 122 113 117 114 119 123 120 119 120 120 120 109 76 345 305 301 300 298 298 301 301 303 305 307 308 310 311 311 311 311 312 310 308 308 310 317
359 6 11 15 17 17 7 20 27 28 41 33 52 141 150 149 144 135 135 134 128 124 124 124 128 133 129 109 92 5 324 314 302 306 312 308 307 307 308 307 308 310 312 313 315 315 314 315 317 319 320 323 329 6
3 1 8 11 15 20 24 23 19 37 38 17 87 150 158 164 157 152 158 160 156 148 153 156 156 156 172 243 311 317 323 317 309 309 315 315 314 312 312 313 314 316 317 320 321 320 320 320 321 325 331 349 116 120
6 360 3 1 5 14 13 15 25 31 42 66 100 137 150 150 152 162 167 166 169 169 176 183 193 205 228 293 309 317 319 318 310 309 315 317 318 321 323 324 324 325 327 326 324 322 320 318 316 317 319 140 141 135
359 357 357 0 359 4 12 20 38 78 90 94 98 110 133 138 149 159 165 167 178 184 194 198 204 219 253 288 311 325 328 326 319 314 319 325 325 328 331 332 329 328 329 329 328 321 315 310 300 281 232 189 167 159
349 352 354 351 357 359 5 11 34 127 128 122 136 114 132 137 144 144 142 144 158 181 193 197 209 238 266 291 307 322 334 345 342 340 335 338 344 341 342 341 339 336 335 334 331 322 312 301 280 259 229 202 188 178
336 342 344 351 351 357 3 10 29 157 163 158 146 155 151 146 142 139 132 119 115 119 147 161 172 215 269 299 328 338 350 360 3 1 359 354 352 351 351 349 347 345 343 341 338 329 314 295 275 249 226 208 199 190
328 333 334 345 350 352 355 9 58 144 140 130 124 132 135 139 143 141 134 118 112 109 117 130 144 95 67 35 15 10 6 4 7 3 356 354 350 347 349 350 350 349 348 347 344 338 329 308 272 228 211 201 195 191
318 322 322 337 351 355 25 77 104 135 138 132 129 126 128 135 142 139 127 123 120 109 94 77 105 121 79 32 24 17 13 9 359 354 350 347 344 344 346 348 350 350 349 348 346 345 336 322 279 240 220 210 204 199
313 315 302 312 337 345 205 158 145 149 153 152 146 138 135 133 131 141 128 121 128 97 83 77 75 78 28 6 5 0 352 350 350 349 346 346 344 344 344 344 345 347 346 345 343 340 332 319 287 251 234 226 217 210
294 289 277 271 298 327 204 180 169 165 166 170 171 172 166 163 165 163 172 164 143 130 83 40 16 2 349 343 333 337 340 341 341 341 340 339 339 339 339 339 339 339 337 337 337 333 326 311 288 267 253 242 231 221